When you browse on this site, cookies collect data to enhance your experience and personalize the content and advertising you see.
Visit our Privacy Policy to learn more. By continuing to use the site, you agree to this use of cookies and data.
  • In Latvia
  • List of Countries
  • For 7 days
  • Water Temperature
  • Satellite Maps
  • Weather Map
  • Weather Widgets
  • user-avatar
    Login

    Hourly Weather Innsbruck

    Today, 21 April, Sunday

    Time Temperature Precipitation Wind Pressure Humidity
    00:00 -1°C° 0 mm 2 mps 599 mmHg 53%
    01:00 -2°C° 0 mm 2 mps 598 mmHg 55%
    02:00 -2°C° 0 mm 3 mps 598 mmHg 56%
    03:00 -4°C° 0 mm 3 mps 597 mmHg 58%
    04:00 -4°C° 0 mm 3 mps 597 mmHg 60%
    05:00 -2°C° 0 mm 3 mps 597 mmHg 61%
    06:00 -1°C° 0 mm 3 mps 598 mmHg 62%
    07:00 +2°C° 0 mm 2 mps 598 mmHg 65%
    08:00 +4°C° 0 mm 2 mps 599 mmHg 63%
    09:00 +7°C° 0 mm 2 mps 599 mmHg 62%
    10:00 +10°C° 0 mm 1 mps 600 mmHg 61%
    11:00 +10°C° 0 mm 2 mps 600 mmHg 56%
    12:00 +12°C° 0 mm 2 mps 600 mmHg 51%
    13:00 +12°C° 0 mm 2 mps 600 mmHg 45%
    14:00 +12°C° 0 mm 2 mps 600 mmHg 45%
    15:00 +12°C° 0 mm 2 mps 599 mmHg 44%
    16:00 +12°C° 0 mm 2 mps 599 mmHg 44%
    17:00 +8°C° 0 mm 2 mps 598 mmHg 49%
    18:00 +6°C° 0 mm 2 mps 597 mmHg 55%
    19:00 +4°C° 0 mm 2 mps 596 mmHg 61%
    20:00 +3°C° 0 mm 2 mps 595 mmHg 63%
    21:00 +1°C° 0 mm 3 mps 595 mmHg 65%
    22:00 0°C° 0 mm 3 mps 595 mmHg 67%
    23:00 -1°C° 0 mm 3 mps 594 mmHg 69%

    Tomorrow, 22 April, Monday

    Time Temperature Precipitation Wind Pressure Humidity
    00:00 -1°C° 0 mm 3 mps 594 mmHg 72%
    01:00 -1°C° 0 mm 3 mps 594 mmHg 74%
    02:00 -2°C° 0 mm 3 mps 594 mmHg 75%
    03:00 -2°C° 0 mm 3 mps 593 mmHg 77%
    04:00 -2°C° 0 mm 3 mps 593 mmHg 78%
    05:00 -1°C° 0 mm 3 mps 593 mmHg 75%
    06:00 0°C° 0 mm 3 mps 593 mmHg 73%
    07:00 +1°C° 0 mm 3 mps 593 mmHg 70%
    08:00 +4°C° 0 mm 3 mps 594 mmHg 63%
    09:00 +7°C° 0 mm 2 mps 594 mmHg 56%
    10:00 +9°C° 0 mm 2 mps 595 mmHg 49%
    11:00 +10°C° 0 mm 2 mps 595 mmHg 45%
    12:00 +12°C° 0 mm 2 mps 595 mmHg 42%
    13:00 +13°C° 0 mm 2 mps 595 mmHg 38%
    14:00 +13°C° 0 mm 2 mps 594 mmHg 38%
    15:00 +13°C° 0 mm 2 mps 594 mmHg 38%
    16:00 +13°C° 0 mm 2 mps 593 mmHg 37%
    17:00 +9°C° 0 mm 2 mps 592 mmHg 45%
    18:00 +7°C° 0 mm 2 mps 591 mmHg 53%
    19:00 +4°C° 0 mm 3 mps 589 mmHg 61%
    20:00 +3°C° 0 mm 3 mps 589 mmHg 67%
    21:00 +2°C° 0 mm 3 mps 589 mmHg 73%
    22:00 +1°C° 0 mm 3 mps 588 mmHg 79%
    23:00 +1°C° 0 mm 3 mps 588 mmHg 80%

    Day after tomorrow, 23 April, Tuesday

    Time Temperature Precipitation Wind Pressure Humidity
    00:00 0°C° 0 mm 3 mps 588 mmHg 81%
    01:00 0°C° 0 mm 3 mps 587 mmHg 82%
    02:00 0°C° 0 mm 3 mps 587 mmHg 81%
    03:00 -1°C° 0 mm 3 mps 586 mmHg 80%
    04:00 -1°C° 0 mm 3 mps 586 mmHg 79%
    05:00 0°C° 0 mm 3 mps 586 mmHg 77%
    06:00 +1°C° 0 mm 3 mps 586 mmHg 74%
    07:00 +1°C° 0 mm 3 mps 586 mmHg 72%
    08:00 +3°C° 0.1 mm 3 mps 587 mmHg 68%
    09:00 +5°C° 0.1 mm 3 mps 588 mmHg 63%
    10:00 +7°C° 0.1 mm 3 mps 588 mmHg 58%
    11:00 +8°C° 0 mm 3 mps 589 mmHg 56%
    12:00 +9°C° 0 mm 3 mps 589 mmHg 53%
    13:00 +10°C° 0 mm 3 mps 589 mmHg 51%
    14:00 +10°C° 0 mm 3 mps 589 mmHg 52%
    15:00 +9°C° 0 mm 3 mps 589 mmHg 54%
    16:00 +9°C° 0 mm 3 mps 589 mmHg 56%
    17:00 +7°C° 0 mm 3 mps 588 mmHg 62%
    18:00 +6°C° 0 mm 2 mps 588 mmHg 69%
    19:00 +4°C° 0 mm 2 mps 587 mmHg 75%
    20:00 +2°C° 0 mm 3 mps 587 mmHg 77%
    21:00 +2°C° 0 mm 3 mps 588 mmHg 80%
    22:00 +1°C° 0 mm 3 mps 588 mmHg 82%
    23:00 +1°C° 0 mm 3 mps 588 mmHg 83%

    24 April, Wednesday

    Time Temperature Precipitation Wind Pressure Humidity
    00:00 +1°C° 0 mm 3 mps 588 mmHg 84%
    01:00 0°C° 0 mm 3 mps 588 mmHg 86%
    02:00 0°C° 0 mm 3 mps 589 mmHg 86%
    03:00 0°C° 0 mm 3 mps 589 mmHg 86%
    04:00 0°C° 0 mm 3 mps 589 mmHg 87%
    05:00 +1°C° 0 mm 3 mps 590 mmHg 83%
    06:00 +2°C° 0 mm 3 mps 590 mmHg 80%
    07:00 +3°C° 0 mm 3 mps 591 mmHg 77%
    08:00 +4°C° 0 mm 3 mps 592 mmHg 70%
    09:00 +7°C° 0 mm 3 mps 593 mmHg 63%
    10:00 +9°C° 0 mm 3 mps 594 mmHg 56%
    11:00 +9°C° 0 mm 3 mps 594 mmHg 54%
    12:00 +10°C° 0 mm 4 mps 594 mmHg 53%
    13:00 +10°C° 0 mm 4 mps 595 mmHg 51%
    14:00 +10°C° 0 mm 4 mps 595 mmHg 52%
    15:00 +10°C° 0 mm 4 mps 595 mmHg 54%
    16:00 +10°C° 0 mm 4 mps 594 mmHg 55%
    17:00 +7°C° 0 mm 4 mps 594 mmHg 62%
    18:00 +7°C° 0 mm 3 mps 594 mmHg 69%
    19:00 +4°C° 0 mm 3 mps 593 mmHg 75%
    20:00 +4°C° 0 mm 3 mps 593 mmHg 78%
    21:00 +3°C° 0 mm 3 mps 593 mmHg 80%
    22:00 +3°C° 0 mm 4 mps 594 mmHg 82%
    23:00 +3°C° 0 mm 4 mps 593 mmHg 83%

    25 April, Thursday

    Time Temperature Precipitation Wind Pressure Humidity
    00:00 +1°C° 0 mm 4 mps 593 mmHg 84%
    01:00 +1°C° 0 mm 4 mps 593 mmHg 85%
    02:00 +1°C° 0 mm 4 mps 593 mmHg 85%
    03:00 +2°C° 0 mm 3 mps 593 mmHg 85%
    04:00 +1°C° 0 mm 3 mps 593 mmHg 85%
    05:00 +2°C° 0 mm 3 mps 593 mmHg 83%
    06:00 +3°C° 0 mm 3 mps 594 mmHg 80%
    07:00 +3°C° 0 mm 3 mps 594 mmHg 78%
    08:00 +5°C° 0 mm 4 mps 594 mmHg 72%
    09:00 +6°C° 0 mm 4 mps 595 mmHg 67%
    10:00 +8°C° 0 mm 4 mps 596 mmHg 61%
    11:00 +8°C° 0 mm 4 mps 596 mmHg 59%
    12:00 +10°C° 0 mm 4 mps 596 mmHg 56%
    13:00 +11°C° 0 mm 4 mps 596 mmHg 53%
    14:00 +10°C° 0.1 mm 4 mps 595 mmHg 56%
    15:00 +10°C° 0.1 mm 4 mps 595 mmHg 59%
    16:00 +8°C° 0.1 mm 4 mps 594 mmHg 61%
    17:00 +8°C° 0.1 mm 3 mps 593 mmHg 67%
    18:00 +7°C° 0.1 mm 3 mps 593 mmHg 72%
    19:00 +5°C° 0.1 mm 3 mps 592 mmHg 77%
    20:00 +4°C° 0 mm 3 mps 592 mmHg 81%
    21:00 +3°C° 0 mm 3 mps 592 mmHg 84%
    22:00 +2°C° 0 mm 3 mps 592 mmHg 87%
    23:00 +2°C° 0 mm 3 mps 592 mmHg 87%

    26 April, Friday

    Time Temperature Precipitation Wind Pressure Humidity
    00:00 +2°C° 0 mm 3 mps 592 mmHg 87%
    01:00 +1°C° 0 mm 3 mps 592 mmHg 87%
    02:00 +1°C° 0 mm 3 mps 592 mmHg 89%
    03:00 +2°C° 0 mm 2 mps 592 mmHg 90%
    04:00 +1°C° 0 mm 2 mps 592 mmHg 92%
    05:00 +2°C° 0.1 mm 2 mps 592 mmHg 89%
    06:00 +2°C° 0.1 mm 2 mps 593 mmHg 87%
    07:00 +2°C° 0.1 mm 2 mps 593 mmHg 84%
    08:00 +2°C° 0.6 mm 2 mps 593 mmHg 84%
    09:00 +2°C° 0.6 mm 2 mps 593 mmHg 84%
    10:00 +2°C° 0.6 mm 2 mps 593 mmHg 84%
    11:00 +1°C° 2.1 mm 2 mps 593 mmHg 87%
    12:00 -1°C° 2.1 mm 2 mps 592 mmHg 90%
    13:00 -2°C° 2.1 mm 2 mps 592 mmHg 93%
    14:00 -3°C° 2 mm 2 mps 592 mmHg 93%
    15:00 -3°C° 2 mm 2 mps 592 mmHg 93%
    16:00 -5°C° 2 mm 3 mps 591 mmHg 94%
    17:00 -4°C° 1 mm 2 mps 592 mmHg 94%
    18:00 -5°C° 1 mm 2 mps 592 mmHg 95%
    19:00 -5°C° 1 mm 2 mps 592 mmHg 95%
    20:00 -5°C° 0.8 mm 2 mps 593 mmHg 96%
    21:00 -5°C° 0.8 mm 2 mps 593 mmHg 96%
    22:00 -6°C° 0.8 mm 2 mps 593 mmHg 96%
    23:00 -6°C° 0.6 mm 2 mps 593 mmHg 96%
    Show more